| time (UTC) | temp F | wind direction | speed MPH | gust MPH | rain 1hr in | rain 24hr in | rain mn in | humidity % | barometer mb |
| 20260505170016 | 69 | 174 | 4.0 | 9.0 | 0.00 | 0.00 | 0.00 | 54 | 1008.6 |
| 20260505164509 | 69 | 252 | 5.0 | 11.0 | 0.00 | 0.00 | 0.00 | 53 | 1008.8 |
| 20260505163010 | 69 | 215 | 5.0 | 10.0 | 0.00 | 0.00 | 0.00 | 55 | 1008.5 |
| 20260505161507 | 69 | 222 | 4.0 | 8.0 | 0.00 | 0.00 | 0.00 | 54 | 1008.2 |
| 20260505160108 | 68 | 216 | 3.0 | 9.0 | 0.00 | 0.00 | 0.00 | 55 | 1008.2 |
| 20260505153001 | 68 | 203 | 4.0 | 10.0 | 0.00 | 0.00 | 0.00 | 55 | 1008.2 |
| 20260505151604 | 67 | 193 | 4.0 | 11.0 | 0.00 | 0.00 | 0.00 | 55 | 1008.3 |
| 20260505124535 | 60 | 188 | 1.0 | 3.0 | 0.00 | 0.00 | 0.00 | 51 | 1008.0 |
| 20260505123033 | 60 | 174 | 2.0 | 4.0 | 0.00 | 0.00 | 0.00 | 53 | 1007.7 |
| 20260505121533 | 60 | 181 | 1.0 | 3.0 | 0.00 | 0.00 | 0.00 | 52 | 1007.8 |
| 20260505120035 | 60 | 192 | 0.0 | 3.0 | 0.00 | 0.00 | 0.00 | 52 | 1007.8 |
| 20260505114530 | 60 | 184 | 0.0 | 4.0 | 0.00 | 0.00 | 0.00 | 53 | 1007.7 |
| 20260505113032 | 60 | 197 | 1.0 | 5.0 | 0.00 | 0.00 | 0.00 | 54 | 1007.7 |
| 20260505111529 | 60 | 184 | 1.0 | 4.0 | 0.00 | 0.00 | 0.00 | 52 | 1007.7 |
| 20260505101521 | 60 | 229 | 1.0 | 2.0 | 0.00 | 0.00 | 0.00 | 56 | 1007.2 |
| 20260505100022 | 60 | 198 | 1.0 | 3.0 | 0.00 | 0.00 | 0.00 | 58 | 1007.1 |
| 20260505094517 | 60 | 226 | 1.0 | 2.0 | 0.00 | 0.00 | 0.00 | 58 | 1007.0 |
| 20260505093027 | 60 | 217 | 1.0 | 4.0 | 0.00 | 0.00 | 0.00 | 59 | 1006.7 |
| 20260505091516 | 61 | 221 | 2.0 | 5.0 | 0.00 | 0.00 | 0.00 | 59 | 1006.7 |
| 20260505090014 | 61 | 202 | 1.0 | 3.0 | 0.00 | 0.00 | 0.00 | 60 | 1006.5 |
| 20260505084511 | 62 | 215 | 2.0 | 7.0 | 0.00 | 0.00 | 0.00 | 60 | 1006.5 |
| 20260505083010 | 62 | 230 | 2.0 | 6.0 | 0.00 | 0.00 | 0.00 | 60 | 1006.3 |
| 20260505081509 | 62 | 203 | 3.0 | 6.0 | 0.00 | 0.00 | 0.00 | 60 | 1006.1 |
| 20260505080011 | 62 | 226 | 1.0 | 5.0 | 0.00 | 0.00 | 0.00 | 60 | 1006.0 |
| 20260505074508 | 62 | 195 | 3.0 | 5.0 | 0.00 | 0.00 | 0.00 | 60 | 1005.8 |
| 20260505073007 | 62 | 209 | 2.0 | 4.0 | 0.00 | 0.00 | 0.00 | 60 | 1005.8 |
| 20260505071506 | 62 | 231 | 2.0 | 7.0 | 0.00 | 0.00 | 0.00 | 60 | 1005.7 |
| 20260505070006 | 62 | 195 | 2.0 | 4.0 | 0.00 | 0.00 | 0.00 | 60 | 1005.8 |
| 20260505064506 | 62 | 210 | 2.0 | 5.0 | 0.00 | 0.00 | 0.00 | 59 | 1005.8 |
| 20260505063002 | 62 | 208 | 2.0 | 4.0 | 0.00 | 0.00 | 0.00 | 60 | 1005.9 |
| 20260505061500 | 62 | 224 | 2.0 | 5.0 | 0.00 | 0.00 | 0.00 | 60 | 1006.0 |
| 20260505060059 | 63 | 205 | 2.0 | 4.0 | 0.00 | 0.00 | 0.00 | 60 | 1006.1 |
| 20260505054557 | 63 | 184 | 3.0 | 7.0 | 0.00 | 0.00 | 0.00 | 60 | 1006.5 |
| 20260505053105 | 64 | 184 | 2.0 | 4.0 | 0.00 | 0.00 | 0.00 | 60 | 1006.7 |
| 20260505051554 | 64 | 187 | 2.0 | 4.0 | 0.00 | 0.00 | 0.00 | 60 | 1006.8 |
| 20260505041545 | 62 | 164 | 2.0 | 4.0 | 0.00 | 0.00 | 0.00 | 60 | 1006.9 |
| 20260505040043 | 62 | 162 | 2.0 | 4.0 | 0.00 | 0.00 | 0.00 | 59 | 1007.0 |
| 20260505034542 | 62 | 186 | 2.0 | 5.0 | 0.00 | 0.00 | 0.00 | 60 | 1007.1 |
| 20260505033104 | 61 | 165 | 2.0 | 4.0 | 0.00 | 0.00 | 0.00 | 61 | 1007.2 |
| 20260505031541 | 62 | 177 | 1.0 | 4.0 | 0.00 | 0.00 | 0.00 | 61 | 1007.2 |
| 20260505030042 | 62 | 178 | 1.0 | 3.0 | 0.00 | 0.00 | 0.00 | 61 | 1007.1 |
| 20260505024540 | 62 | 188 | 1.0 | 4.0 | 0.00 | 0.00 | 0.00 | 61 | 1007.0 |
| 20260505023052 | 62 | 170 | 2.0 | 4.0 | 0.00 | 0.00 | 0.00 | 61 | 1007.2 |
| 20260505021539 | 62 | 184 | 1.0 | 3.0 | 0.00 | 0.00 | 0.00 | 61 | 1007.3 |
| 20260505020046 | 63 | 176 | 2.0 | 3.0 | 0.00 | 0.00 | 0.00 | 61 | 1007.4 |
| 20260505014537 | 64 | 184 | 2.0 | 4.0 | 0.00 | 0.00 | 0.00 | 60 | 1007.3 |
| 20260505013037 | 64 | 207 | 2.0 | 4.0 | 0.00 | 0.00 | 0.00 | 60 | 1007.2 |
| 20260505011537 | 64 | 178 | 2.0 | 4.0 | 0.00 | 0.00 | 0.00 | 60 | 1007.2 |
| 20260505010041 | 64 | 191 | 2.0 | 7.0 | 0.00 | 0.00 | 0.00 | 59 | 1007.1 |
| 20260505004544 | 65 | 210 | 2.0 | 4.0 | 0.00 | 0.00 | 0.00 | 58 | 1007.1 |
| 20260505003037 | 66 | 216 | 2.0 | 5.0 | 0.00 | 0.00 | 0.00 | 57 | 1006.8 |
| 20260505001534 | 66 | 203 | 4.0 | 8.0 | 0.00 | 0.00 | 0.00 | 57 | 1006.7 |
| 20260505000036 | 66 | 229 | 3.0 | 10.0 | 0.00 | 0.00 | 0.00 | 57 | 1006.5 |
| 20260504234555 | 67 | 195 | 2.0 | 6.0 | 0.00 | 0.00 | 0.00 | 57 | 1006.4 |
| 20260504233034 | 68 | 226 | 1.0 | 5.0 | 0.00 | 0.00 | 0.00 | 55 | 1006.3 |
| 20260504231542 | 69 | 209 | 3.0 | 7.0 | 0.00 | 0.00 | 0.00 | 53 | 1006.4 |
| 20260504230030 | 69 | 237 | 2.0 | 9.0 | 0.00 | 0.00 | 0.00 | 55 | 1006.5 |
| 20260504224529 | 69 | 209 | 2.0 | 8.0 | 0.00 | 0.00 | 0.00 | 53 | 1006.7 |
| 20260504223027 | 70 | 219 | 4.0 | 11.0 | 0.00 | 0.00 | 0.00 | 53 | 1006.6 |
| 20260504221527 | 70 | 223 | 4.0 | 10.0 | 0.00 | 0.00 | 0.00 | 53 | 1006.8 |
| 20260504220026 | 70 | 224 | 6.0 | 13.0 | 0.00 | 0.00 | 0.00 | 53 | 1006.6 |
| 20260504214533 | 69 | 186 | 5.0 | 10.0 | 0.00 | 0.00 | 0.00 | 53 | 1006.8 |
| 20260504213026 | 70 | 223 | 5.0 | 10.0 | 0.00 | 0.00 | 0.00 | 53 | 1006.9 |
| 20260504211521 | 70 | 202 | 3.0 | 10.0 | 0.00 | 0.00 | 0.00 | 53 | 1007.0 |
| 20260504210020 | 71 | 218 | 3.0 | 8.0 | 0.00 | 0.00 | 0.00 | 52 | 1007.0 |
| 20260504204544 | 71 | 236 | 6.0 | 11.0 | 0.00 | 0.00 | 0.00 | 52 | 1007.1 |
| 20260504203017 | 72 | 242 | 5.0 | 9.0 | 0.00 | 0.00 | 0.00 | 50 | 1007.0 |
| 20260504201516 | 71 | 224 | 3.0 | 10.0 | 0.00 | 0.00 | 0.00 | 52 | 1007.1 |
| 20260504200016 | 72 | 167 | 4.0 | 9.0 | 0.00 | 0.00 | 0.00 | 50 | 1007.3 |
| 20260504194512 | 72 | 207 | 4.0 | 8.0 | 0.00 | 0.00 | 0.00 | 51 | 1007.5 |
| 20260504193200 | 72 | 244 | 3.0 | 10.0 | 0.00 | 0.00 | 0.00 | 50 | 1007.8 |
| 20260504191556 | 71 | 216 | 3.0 | 6.0 | 0.00 | 0.00 | 0.00 | 54 | 1008.1 |
| 20260504190100 | 71 | 222 | 2.0 | 7.0 | 0.00 | 0.00 | 0.00 | 54 | 1008.2 |
| 20260504184603 | 70 | 209 | 3.0 | 10.0 | 0.00 | 0.00 | 0.00 | 51 | 1008.4 |
| 20260504183058 | 70 | 182 | 5.0 | 8.0 | 0.00 | 0.00 | 0.00 | 51 | 1008.4 |
| 20260504181549 | 70 | 238 | 3.0 | 7.0 | 0.00 | 0.00 | 0.00 | 51 | 1008.6 |
| 20260504180045 | 69 | 221 | 2.0 | 9.0 | 0.00 | 0.00 | 0.00 | 51 | 1008.7 |
| 20260504174542 | 69 | 211 | 2.0 | 6.0 | 0.00 | 0.00 | 0.00 | 52 | 1009.1 |
| 20260504173039 | 69 | 163 | 3.0 | 7.0 | 0.00 | 0.00 | 0.00 | 51 | 1009.0 |
| 20260504171543 | 68 | 173 | 1.0 | 6.0 | 0.00 | 0.00 | 0.00 | 52 | 1009.2 |